Time,TemperatureF,DewpointF,PressureIn,WindDirection,WindDirectionDegrees,WindSpeedMPH,WindSpeedGustMPH,Humidity,HourlyPrecipIn,Conditions,Clouds,dailyrainin,SoftwareType,DateUTC
2013-03-31 00:04:00,66.0,61.9,29.80,NNW,345,2.2,3.8,87,0.00,,,0.00,WSDL version 420,2013-03-30 13:04:00,
2013-03-31 00:09:00,66.0,61.9,29.80,NNW,347,2.1,4.0,87,0.00,,,0.00,WSDL version 420,2013-03-30 13:09:00,
2013-03-31 00:14:00,66.0,61.9,29.80,NNW,340,2.2,4.0,87,0.00,,,0.00,WSDL version 420,2013-03-30 13:14:00,
2013-03-31 00:19:00,66.0,61.9,29.80,NNW,340,0.8,3.8,87,0.00,,,0.00,WSDL version 420,2013-03-30 13:19:00,
2013-03-31 00:24:00,66.0,61.9,29.83,North,3,1.9,3.8,87,0.00,,,0.00,WSDL version 420,2013-03-30 13:24:00,
2013-03-31 00:29:00,65.9,61.8,29.83,SW,228,0.3,3.1,87,0.00,,,0.00,WSDL version 420,2013-03-30 13:29:00,
2013-03-31 00:34:00,65.8,61.8,29.83,North,11,0.0,2.2,87,0.00,,,0.00,WSDL version 420,2013-03-30 13:34:00,
2013-03-31 00:39:00,65.7,61.4,29.80,NW,321,1.3,2.7,86,0.00,,,0.00,WSDL version 420,2013-03-30 13:39:00,
2013-03-31 00:44:00,65.6,61.3,29.80,West,270,0.4,2.7,87,0.00,,,0.00,WSDL version 420,2013-03-30 13:44:00,
2013-03-31 00:54:00,65.5,61.8,29.80,SW,231,1.0,2.9,88,0.00,,,0.00,WSDL version 420,2013-03-30 13:54:00,
2013-03-31 01:04:00,65.5,61.8,29.80,SE,141,0.7,2.5,88,0.00,,,0.00,WSDL version 420,2013-03-30 14:04:00,
2013-03-31 01:09:00,65.6,61.9,29.80,East,101,1.4,3.1,88,0.00,,,0.00,WSDL version 420,2013-03-30 14:09:00,
2013-03-31 01:14:00,65.8,62.3,29.80,ESE,110,1.4,3.1,89,0.00,,,0.00,WSDL version 420,2013-03-30 14:14:00,
2013-03-31 01:24:00,66.2,62.5,29.80,ENE,58,2.0,4.7,88,0.00,,,0.00,WSDL version 420,2013-03-30 14:24:00,
2013-03-31 01:34:00,66.2,62.0,29.80,East,87,0.0,4.9,86,0.00,,,0.00,WSDL version 420,2013-03-30 14:34:00,
2013-03-31 01:39:00,66.2,61.7,29.77,North,357,0.0,2.9,86,0.00,,,0.00,WSDL version 420,2013-03-30 14:39:00,
2013-03-31 01:44:00,66.0,61.7,29.77,North,354,2.0,3.4,87,0.00,,,0.00,WSDL version 420,2013-03-30 14:44:00,
2013-03-31 01:49:00,66.0,61.9,29.77,NNW,344,2.2,3.4,87,0.00,,,0.00,WSDL version 420,2013-03-30 14:49:00,
2013-03-31 01:54:00,66.0,61.9,29.77,WNW,300,0.6,3.4,87,0.00,,,0.00,WSDL version 420,2013-03-30 14:54:00,
2013-03-31 01:59:00,65.8,61.8,29.77,SW,221,0.0,2.7,87,0.00,,,0.00,WSDL version 420,2013-03-30 14:59:00,
2013-03-31 02:04:00,65.7,61.5,29.77,NW,307,0.0,2.7,86,0.00,,,0.00,WSDL version 420,2013-03-30 15:04:00,
2013-03-31 02:14:00,65.6,61.5,29.77,NNE,23,0.7,3.1,87,0.00,,,0.00,WSDL version 420,2013-03-30 15:14:00,
2013-03-31 02:19:00,65.5,61.4,29.77,West,270,0.0,2.2,87,0.00,,,0.00,WSDL version 420,2013-03-30 15:19:00,
2013-03-31 02:24:00,65.4,61.3,29.77,East,90,0.0,0.9,87,0.00,,,0.00,WSDL version 420,2013-03-30 15:24:00,
2013-03-31 02:29:00,65.2,61.1,29.77,ENE,58,1.0,2.2,87,0.00,,,0.00,WSDL version 420,2013-03-30 15:29:00,
2013-03-31 02:34:00,65.1,61.4,29.77,SE,135,0.0,2.2,88,-99.99,,,-99.99,WSDL version 420,2013-03-30 15:34:00,
2013-03-31 02:39:00,65.0,61.3,29.77,ESE,113,0.0,0.9,88,0.00,,,0.00,WSDL version 420,2013-03-30 15:39:00,
2013-03-31 02:44:00,64.8,61.3,29.77,SSE,158,0.0,1.3,89,0.00,,,0.00,WSDL version 420,2013-03-30 15:44:00,
2013-03-31 02:49:00,64.8,61.4,29.77,SSW,195,0.0,1.3,89,0.00,,,0.00,WSDL version 420,2013-03-30 15:49:00,
2013-03-31 02:59:00,64.4,61.1,29.77,SSE,148,0.8,1.1,89,0.00,,,0.00,WSDL version 420,2013-03-30 15:59:00,
2013-03-31 03:04:00,64.1,61.0,29.77,ESE,113,0.0,1.1,90,-99.99,,,-99.99,WSDL version 420,2013-03-30 16:04:00,
2013-03-31 03:09:00,63.9,60.9,29.74,ESE,118,0.0,2.0,90,0.00,,,0.00,WSDL version 420,2013-03-30 16:09:00,
2013-03-31 03:14:00,63.9,61.0,29.74,SW,225,0.0,2.0,91,0.00,,,0.00,WSDL version 420,2013-03-30 16:14:00,
2013-03-31 03:19:00,-999.0,-99.9,29.74,WSW,251,0.0,1.3,-999,0.00,,,0.00,WSDL version 420,2013-03-30 16:19:00,
2013-03-31 03:24:00,63.9,61.2,29.74,West,259,0.0,2.0,91,0.00,,,0.00,WSDL version 420,2013-03-30 16:24:00,
2013-03-31 03:29:00,63.8,61.1,29.74,SW,225,0.0,2.0,91,0.00,,,0.00,WSDL version 420,2013-03-30 16:29:00,
2013-03-31 03:34:00,63.8,61.3,29.74,East,100,0.0,1.1,92,0.00,,,0.00,WSDL version 420,2013-03-30 16:34:00,
2013-03-31 03:39:00,63.6,61.3,29.71,South,190,0.4,1.1,92,0.00,,,0.00,WSDL version 420,2013-03-30 16:39:00,
2013-03-31 03:44:00,63.5,61.2,29.71,SW,225,0.0,1.1,92,0.00,,,0.00,WSDL version 420,2013-03-30 16:44:00,
2013-03-31 03:49:00,63.5,61.5,29.71,North,360,0.0,0.0,93,-99.99,,,-99.99,WSDL version 420,2013-03-30 16:49:00,
2013-03-31 03:54:00,63.4,61.3,29.74,WSW,248,0.0,0.0,92,0.00,,,0.00,WSDL version 420,2013-03-30 16:54:00,
2013-03-31 04:04:00,63.1,61.2,29.74,NE,42,0.0,0.0,93,0.00,,,0.00,WSDL version 420,2013-03-30 17:04:00,
2013-03-31 04:09:00,63.1,61.2,29.74,South,180,0.9,2.2,93,0.00,,,0.00,WSDL version 420,2013-03-30 17:09:00,
2013-03-31 04:14:00,63.1,61.2,29.74,ESE,113,0.3,2.2,93,0.00,,,0.00,WSDL version 420,2013-03-30 17:14:00,
2013-03-31 04:19:00,63.4,61.7,29.74,South,174,0.0,2.2,94,0.00,,,0.00,WSDL version 420,2013-03-30 17:19:00,
2013-03-31 04:29:00,63.5,61.9,29.74,West,260,0.0,2.2,94,0.00,,,0.00,WSDL version 420,2013-03-30 17:29:00,
2013-03-31 04:34:00,63.5,61.9,29.74,SE,135,0.0,1.1,94,0.00,,,0.00,WSDL version 420,2013-03-30 17:34:00,
2013-03-31 04:39:00,63.5,61.9,29.74,WSW,250,0.0,1.1,94,-99.99,,,-99.99,WSDL version 420,2013-03-30 17:39:00,
2013-03-31 04:44:00,63.5,61.9,29.74,ESE,109,0.0,1.1,94,0.00,,,0.00,WSDL version 420,2013-03-30 17:44:00,
2013-03-31 04:54:00,63.4,61.8,29.71,NW,321,0.0,1.3,94,0.00,,,0.00,WSDL version 420,2013-03-30 17:54:00,
2013-03-31 04:59:00,63.1,61.3,29.71,WNW,289,0.4,1.3,93,0.00,,,0.00,WSDL version 420,2013-03-30 17:59:00,
2013-03-31 05:04:00,62.8,60.9,29.71,SSW,199,1.0,2.0,93,0.00,,,0.00,WSDL version 420,2013-03-30 18:04:00,
2013-03-31 05:14:00,62.4,60.8,29.74,SSW,203,0.0,1.1,94,0.00,,,0.00,WSDL version 420,2013-03-30 18:14:00,
2013-03-31 05:24:00,62.1,60.8,29.74,WNW,289,1.2,2.5,96,0.00,,,0.00,WSDL version 420,2013-03-30 18:24:00,
2013-03-31 05:29:00,61.9,60.5,29.74,East,90,0.0,2.5,96,0.00,,,0.00,WSDL version 420,2013-03-30 18:29:00,
2013-03-31 05:34:00,62.1,60.8,29.74,SE,125,0.6,1.6,96,0.00,,,0.00,WSDL version 420,2013-03-30 18:34:00,
2013-03-31 05:39:00,62.1,60.9,29.74,ESE,113,0.0,1.6,97,0.00,,,0.00,WSDL version 420,2013-03-30 18:39:00,
2013-03-31 05:49:00,61.7,60.7,29.74,SSE,158,0.0,0.0,97,0.00,,,0.00,WSDL version 420,2013-03-30 18:49:00,
2013-03-31 05:59:00,61.3,60.4,29.74,NW,315,0.0,0.0,97,0.00,,,0.00,WSDL version 420,2013-03-30 18:59:00,
2013-03-31 06:04:00,61.2,60.3,29.74,WNW,293,0.0,0.0,97,0.00,,,0.00,WSDL version 420,2013-03-30 19:04:00,
2013-03-31 06:09:00,61.0,60.0,29.74,SW,236,0.0,0.0,97,-99.99,,,-99.99,WSDL version 420,2013-03-30 19:09:00,
2013-03-31 06:14:00,60.8,60.1,29.74,South,180,0.0,0.0,98,0.00,,,0.00,WSDL version 420,2013-03-30 19:14:00,
2013-03-31 06:19:00,60.8,60.2,29.74,SSW,203,0.0,0.0,98,0.00,,,0.00,WSDL version 420,2013-03-30 19:19:00,
2013-03-31 06:29:00,60.7,60.0,29.74,ENE,68,0.0,0.0,98,-99.99,,,-99.99,WSDL version 420,2013-03-30 19:29:00,
2013-03-31 06:34:00,60.8,60.2,29.74,South,191,0.0,0.0,98,0.00,,,0.00,WSDL version 420,2013-03-30 19:34:00,
2013-03-31 06:39:00,61.0,60.7,29.74,South,169,0.0,0.0,99,0.00,,,0.00,WSDL version 420,2013-03-30 19:39:00,
2013-03-31 06:44:00,60.8,60.5,29.74,West,270,0.0,0.0,99,0.00,,,0.00,WSDL version 420,2013-03-30 19:44:00,
2013-03-31 06:49:00,60.8,60.5,29.74,ESE,113,0.0,0.0,99,0.00,,,0.00,WSDL version 420,2013-03-30 19:49:00,
2013-03-31 06:54:00,60.9,60.6,29.77,SSE,154,0.0,1.6,99,0.00,,,0.00,WSDL version 420,2013-03-30 19:54:00,
2013-03-31 06:59:00,61.1,60.8,29.77,SSE,165,0.4,1.6,99,0.00,,,0.00,WSDL version 420,2013-03-30 19:59:00,
2013-03-31 07:04:00,61.3,61.0,29.77,South,177,0.0,1.6,100,0.00,,,0.00,WSDL version 420,2013-03-30 20:04:00,
2013-03-31 07:09:00,61.6,61.5,29.74,South,173,0.0,2.2,100,0.00,,,0.00,WSDL version 420,2013-03-30 20:09:00,
2013-03-31 07:19:00,62.3,62.3,29.74,SW,231,1.3,3.8,100,0.00,,,0.00,WSDL version 420,2013-03-30 20:19:00,
2013-03-31 07:24:00,62.5,62.5,29.74,SSE,158,0.7,2.0,100,0.00,,,0.00,WSDL version 420,2013-03-30 20:24:00,
2013-03-31 07:29:00,62.6,62.5,29.74,SSE,165,0.0,2.0,99,0.00,,,0.00,WSDL version 420,2013-03-30 20:29:00,
2013-03-31 07:34:00,62.6,62.3,29.74,SW,225,0.0,2.0,99,0.00,,,0.00,WSDL version 420,2013-03-30 20:34:00,
2013-03-31 07:44:00,62.7,62.4,29.74,SW,225,0.0,0.0,99,0.00,,,0.00,WSDL version 420,2013-03-30 20:44:00,
2013-03-31 07:49:00,63.0,62.7,29.74,SE,125,0.1,1.3,99,0.00,,,0.00,WSDL version 420,2013-03-30 20:49:00,
2013-03-31 07:54:00,63.3,63.0,29.74,ESE,122,0.6,2.5,99,0.00,,,0.00,WSDL version 420,2013-03-30 20:54:00,
2013-03-31 07:59:00,63.8,63.6,29.74,SSE,164,0.0,2.5,100,0.00,,,0.00,WSDL version 420,2013-03-30 20:59:00,
2013-03-31 08:09:00,64.8,64.4,29.74,WSW,241,0.2,2.5,99,0.00,,,0.00,WSDL version 420,2013-03-30 21:09:00,
2013-03-31 08:14:00,65.3,64.9,29.74,SSW,205,0.0,2.5,98,0.00,,,0.00,WSDL version 420,2013-03-30 21:14:00,
2013-03-31 08:19:00,65.7,65.0,29.74,South,191,0.2,1.6,98,0.00,,,0.00,WSDL version 420,2013-03-30 21:19:00,
2013-03-31 08:29:00,66.3,65.1,29.77,SSW,197,0.0,2.2,96,0.00,,,0.00,WSDL version 420,2013-03-30 21:29:00,
2013-03-31 08:34:00,66.4,65.0,29.77,SE,125,1.0,2.2,94,0.00,,,0.00,WSDL version 420,2013-03-30 21:34:00,
2013-03-31 08:39:00,66.4,64.6,29.77,WSW,248,0.4,2.5,93,0.00,,,0.00,WSDL version 420,2013-03-30 21:39:00,
2013-03-31 08:49:00,66.5,64.1,29.77,West,270,2.4,3.4,91,0.00,,,0.00,WSDL version 420,2013-03-30 21:49:00,
2013-03-31 08:54:00,66.6,63.5,29.80,WNW,289,2.5,4.0,89,0.00,,,0.00,WSDL version 420,2013-03-30 21:54:00,
2013-03-31 08:59:00,66.7,62.9,29.80,West,273,1.1,4.3,88,0.00,,,0.00,WSDL version 420,2013-03-30 21:59:00,
2013-03-31 09:04:00,66.6,62.6,29.80,West,278,2.5,4.3,87,0.00,,,0.00,WSDL version 420,2013-03-30 22:04:00,
2013-03-31 09:14:00,66.7,62.3,29.80,WSW,250,1.2,3.4,86,0.00,,,0.00,WSDL version 420,2013-03-30 22:14:00,
2013-03-31 09:24:00,66.6,61.6,29.77,WSW,257,2.2,4.9,83,-99.99,,,-99.99,WSDL version 420,2013-03-30 22:24:00,
2013-03-31 09:29:00,66.6,60.9,29.77,WSW,255,2.6,5.8,81,0.00,,,0.00,WSDL version 420,2013-03-30 22:29:00,
2013-03-31 09:34:00,66.7,60.7,29.77,WNW,290,2.5,5.8,81,0.00,,,0.00,WSDL version 420,2013-03-30 22:34:00,
2013-03-31 09:39:00,66.7,60.8,29.77,West,270,0.9,5.6,81,0.00,,,0.00,WSDL version 420,2013-03-30 22:39:00,
2013-03-31 09:44:00,66.9,60.9,29.77,East,96,0.4,1.6,81,0.00,,,0.00,WSDL version 420,2013-03-30 22:44:00,
2013-03-31 09:49:00,66.9,60.9,29.77,West,260,1.6,3.6,81,0.00,,,0.00,WSDL version 420,2013-03-30 22:49:00,
2013-03-31 09:54:00,67.1,60.8,29.80,West,260,2.3,4.3,79,0.00,,,0.00,WSDL version 420,2013-03-30 22:54:00,
2013-03-31 09:59:00,67.3,59.9,29.80,WSW,248,2.5,6.5,77,0.00,,,0.00,WSDL version 420,2013-03-30 22:59:00,
2013-03-31 10:04:00,67.7,59.7,29.80,West,274,3.6,6.5,74,0.00,,,0.00,WSDL version 420,2013-03-30 23:04:00,
2013-03-31 10:09:00,67.9,59.4,29.80,West,280,2.7,5.4,73,0.00,,,0.00,WSDL version 420,2013-03-30 23:09:00,
2013-03-31 10:14:00,68.1,58.2,29.80,West,270,2.7,6.5,69,0.00,,,0.00,WSDL version 420,2013-03-30 23:14:00,
2013-03-31 10:19:00,68.5,57.7,29.80,WSW,257,3.0,6.5,68,0.00,,,0.00,WSDL version 420,2013-03-30 23:19:00,
2013-03-31 10:24:00,69.1,57.4,29.83,WSW,248,2.6,6.3,67,-99.99,,,-99.99,WSDL version 420,2013-03-30 23:24:00,
2013-03-31 10:29:00,69.4,58.3,29.83,North,8,0.3,6.3,68,0.00,,,0.00,WSDL version 420,2013-03-30 23:29:00,
2013-03-31 10:34:00,69.6,59.0,29.83,SE,129,1.0,2.2,69,0.00,,,0.00,WSDL version 420,2013-03-30 23:34:00,
2013-03-31 10:44:00,69.5,59.3,29.80,South,188,0.0,2.2,70,0.00,,,0.00,WSDL version 420,2013-03-30 23:44:00,
2013-03-31 10:49:00,69.7,59.0,29.80,NW,308,0.0,2.0,69,0.47,,,0.47,WSDL version 420,2013-03-30 23:49:00,
2013-03-31 10:54:00,70.1,59.0,29.77,SW,214,1.5,3.1,68,0.47,,,0.47,WSDL version 420,2013-03-30 23:54:00,
2013-03-31 10:59:00,70.5,59.1,29.77,SW,228,0.9,3.1,67,0.47,,,0.47,WSDL version 420,2013-03-30 23:59:00,
2013-03-31 11:04:00,71.0,58.3,29.77,NNE,13,1.3,5.4,62,0.47,,,0.47,WSDL version 420,2013-03-31 00:04:00,
2013-03-31 11:14:00,71.2,53.1,29.80,North,356,2.2,3.8,52,0.47,,,0.47,WSDL version 420,2013-03-31 00:14:00,
2013-03-31 11:19:00,71.2,52.9,29.80,NNW,338,1.9,4.3,53,0.47,,,0.47,WSDL version 420,2013-03-31 00:19:00,
2013-03-31 11:24:00,71.2,53.1,29.80,WSW,248,2.7,5.6,51,0.47,,,0.47,WSDL version 420,2013-03-31 00:24:00,
2013-03-31 11:34:00,71.1,52.6,29.80,NNW,338,2.5,6.3,51,0.47,,,0.47,WSDL version 420,2013-03-31 00:34:00,
2013-03-31 11:39:00,71.1,52.0,29.83,WNW,302,2.1,6.3,51,0.47,,,0.47,WSDL version 420,2013-03-31 00:39:00,
2013-03-31 11:44:00,70.9,52.3,29.83,NW,312,1.5,3.1,53,0.47,,,0.47,WSDL version 420,2013-03-31 00:44:00,
2013-03-31 11:49:00,70.7,53.5,29.83,West,276,1.4,2.7,55,0.00,,,0.47,WSDL version 420,2013-03-31 00:49:00,
2013-03-31 11:54:00,70.7,54.9,29.80,NNW,340,1.4,3.6,57,0.00,,,0.47,WSDL version 420,2013-03-31 00:54:00,
2013-03-31 11:59:00,70.9,54.8,29.80,SW,214,1.5,3.6,57,0.00,,,0.47,WSDL version 420,2013-03-31 00:59:00,
2013-03-31 12:04:00,71.7,54.7,-100.00,NW,315,1.9,3.6,54,0.00,,,0.47,WSDL version 420,2013-03-31 01:04:00,
2013-03-31 12:09:00,73.2,54.8,29.80,West,273,1.2,4.0,50,0.00,,,0.47,WSDL version 420,2013-03-31 01:09:00,
2013-03-31 12:14:00,74.3,53.0,29.80,NW,309,2.3,6.9,47,0.00,,,0.47,WSDL version 420,2013-03-31 01:14:00,
2013-03-31 12:19:00,75.7,53.0,29.80,West,280,1.7,6.9,45,0.00,,,0.47,WSDL version 420,2013-03-31 01:19:00,
2013-03-31 12:24:00,75.8,52.1,29.80,West,270,1.8,4.9,43,0.00,,,0.47,WSDL version 420,2013-03-31 01:24:00,
2013-03-31 12:29:00,76.1,51.8,29.80,WNW,289,2.7,4.9,43,0.00,,,0.47,WSDL version 420,2013-03-31 01:29:00,
2013-03-31 12:34:00,77.0,52.8,29.80,West,267,2.1,3.6,43,0.00,,,0.47,WSDL version 420,2013-03-31 01:34:00,
2013-03-31 12:39:00,78.3,53.1,29.80,WNW,300,2.9,3.8,41,0.00,,,0.47,WSDL version 420,2013-03-31 01:39:00,
2013-03-31 12:44:00,79.3,52.9,29.80,WNW,296,2.1,4.5,40,0.00,,,0.47,WSDL version 420,2013-03-31 01:44:00,
2013-03-31 12:49:00,79.9,52.7,29.80,WNW,287,3.5,6.3,37,0.00,,,0.47,WSDL version 420,2013-03-31 01:49:00,
2013-03-31 12:54:00,80.8,52.5,29.80,WNW,300,2.3,6.3,37,0.00,,,0.47,WSDL version 420,2013-03-31 01:54:00,
2013-03-31 12:59:00,81.9,52.1,29.80,NW,308,3.3,9.6,35,0.00,,,0.47,WSDL version 420,2013-03-31 01:59:00,
2013-03-31 13:09:00,81.1,50.1,29.80,West,278,4.5,9.8,34,0.00,,,0.47,WSDL version 420,2013-03-31 02:09:00,
2013-03-31 13:14:00,81.1,49.8,29.80,NNW,343,2.9,8.7,34,0.00,,,0.47,WSDL version 420,2013-03-31 02:14:00,
2013-03-31 13:24:00,80.7,49.0,29.77,West,270,4.7,8.1,33,0.00,,,0.47,WSDL version 420,2013-03-31 02:24:00,
2013-03-31 13:29:00,80.7,49.2,29.77,West,267,2.4,8.1,34,0.00,,,0.47,WSDL version 420,2013-03-31 02:29:00,
2013-03-31 13:39:00,80.6,48.9,29.77,West,274,2.9,10.1,33,0.00,,,0.47,WSDL version 420,2013-03-31 02:39:00,
2013-03-31 13:49:00,80.8,47.6,29.77,WNW,289,4.6,7.8,31,0.00,,,0.47,WSDL version 420,2013-03-31 02:49:00,
2013-03-31 13:54:00,81.3,48.4,29.77,WNW,285,4.2,7.2,31,0.00,,,0.47,WSDL version 420,2013-03-31 02:54:00,
2013-03-31 13:59:00,81.0,47.8,29.77,WNW,290,3.0,7.2,32,0.00,,,0.47,WSDL version 420,2013-03-31 02:59:00,
2013-03-31 14:04:00,80.7,48.2,29.77,West,280,3.4,6.5,32,0.00,,,0.47,WSDL version 420,2013-03-31 03:04:00,
2013-03-31 14:09:00,80.5,48.0,29.77,West,267,3.9,6.5,32,0.00,,,0.47,WSDL version 420,2013-03-31 03:09:00,
2013-03-31 14:14:00,80.4,47.8,29.77,WNW,285,4.7,6.0,32,0.00,,,0.47,WSDL version 420,2013-03-31 03:14:00,
2013-03-31 14:19:00,80.6,48.1,29.77,West,279,3.2,6.0,32,0.00,,,0.47,WSDL version 420,2013-03-31 03:19:00,
2013-03-31 14:24:00,80.8,48.5,29.77,West,278,2.5,6.5,32,0.00,,,0.47,WSDL version 420,2013-03-31 03:24:00,
2013-03-31 14:29:00,80.8,48.4,29.77,WNW,293,2.9,6.5,33,0.00,,,0.47,WSDL version 420,2013-03-31 03:29:00,
2013-03-31 14:34:00,81.7,49.6,29.77,West,270,3.5,6.3,32,0.00,,,0.47,WSDL version 420,2013-03-31 03:34:00,
2013-03-31 14:39:00,82.1,49.3,29.77,WSW,250,2.7,4.9,32,0.00,,,0.47,WSDL version 420,2013-03-31 03:39:00,
2013-03-31 14:44:00,82.0,49.0,29.77,NNW,334,2.6,7.4,32,0.00,,,0.47,WSDL version 420,2013-03-31 03:44:00,
2013-03-31 14:49:00,82.0,48.8,29.77,WSW,241,4.3,9.2,31,0.00,,,0.47,WSDL version 420,2013-03-31 03:49:00,
2013-03-31 14:54:00,80.8,47.4,29.77,NW,309,3.0,9.2,31,0.00,,,0.47,WSDL version 420,2013-03-31 03:54:00,
2013-03-31 14:59:00,80.2,46.9,29.77,West,266,2.5,8.1,31,0.00,,,0.47,WSDL version 420,2013-03-31 03:59:00,
2013-03-31 15:04:00,79.2,46.0,29.77,West,276,4.3,8.1,31,-99.99,,,-99.99,WSDL version 420,2013-03-31 04:04:00,
2013-03-31 15:09:00,78.8,46.5,29.80,South,176,2.0,6.3,32,0.00,,,0.47,WSDL version 420,2013-03-31 04:09:00,
2013-03-31 15:14:00,78.9,47.1,29.80,WSW,251,0.6,6.3,33,0.00,,,0.47,WSDL version 420,2013-03-31 04:14:00,
2013-03-31 15:19:00,79.0,47.5,29.80,West,267,1.9,3.8,33,0.00,,,0.47,WSDL version 420,2013-03-31 04:19:00,
2013-03-31 15:24:00,78.6,47.6,29.80,SSW,212,2.7,4.3,34,0.00,,,0.47,WSDL version 420,2013-03-31 04:24:00,
2013-03-31 15:29:00,79.1,48.7,29.80,WNW,293,1.2,4.3,35,0.00,,,0.47,WSDL version 420,2013-03-31 04:29:00,
2013-03-31 15:34:00,79.3,48.9,29.80,SW,225,0.5,3.6,35,0.00,,,0.47,WSDL version 420,2013-03-31 04:34:00,
2013-03-31 15:39:00,79.1,48.3,29.80,SW,228,3.0,5.4,34,0.00,,,0.47,WSDL version 420,2013-03-31 04:39:00,
2013-03-31 15:44:00,78.9,48.4,29.80,WSW,251,1.9,5.4,34,0.00,,,0.47,WSDL version 420,2013-03-31 04:44:00,
2013-03-31 15:49:00,79.3,49.1,29.80,SW,231,1.5,3.8,35,0.00,,,0.47,WSDL version 420,2013-03-31 04:49:00,
2013-03-31 15:54:00,79.3,48.8,29.80,WSW,245,2.5,3.8,34,0.00,,,0.47,WSDL version 420,2013-03-31 04:54:00,
2013-03-31 15:59:00,78.8,48.6,29.80,North,356,2.3,4.3,35,0.00,,,0.47,WSDL version 420,2013-03-31 04:59:00,
2013-03-31 16:04:00,77.9,48.9,29.80,East,98,3.4,5.8,36,0.00,,,0.47,WSDL version 420,2013-03-31 05:04:00,
2013-03-31 16:09:00,77.3,48.9,29.80,North,11,3.3,7.6,37,0.00,,,0.47,WSDL version 420,2013-03-31 05:09:00,
2013-03-31 16:14:00,77.2,48.9,29.80,ENE,77,2.6,7.6,37,-99.99,,,-99.99,WSDL version 420,2013-03-31 05:14:00,
2013-03-31 16:19:00,77.0,49.4,29.80,NE,45,3.0,4.9,39,0.00,,,0.47,WSDL version 420,2013-03-31 05:19:00,
2013-03-31 16:24:00,76.2,50.3,29.80,NE,51,1.8,6.9,41,0.00,,,0.47,WSDL version 420,2013-03-31 05:24:00,
2013-03-31 16:29:00,75.4,50.3,29.80,North,8,2.3,6.9,42,0.00,,,0.47,WSDL version 420,2013-03-31 05:29:00,
2013-03-31 16:34:00,74.8,50.2,29.80,NNE,16,1.9,6.0,42,0.00,,,0.47,WSDL version 420,2013-03-31 05:34:00,
2013-03-31 16:39:00,74.2,50.3,29.80,West,273,2.1,4.3,43,0.00,,,0.47,WSDL version 420,2013-03-31 05:39:00,
2013-03-31 16:44:00,73.7,50.0,29.80,East,94,1.4,4.3,44,0.00,,,0.47,WSDL version 420,2013-03-31 05:44:00,
2013-03-31 16:49:00,73.3,50.4,29.80,NW,307,1.1,3.6,45,0.00,,,0.47,WSDL version 420,2013-03-31 05:49:00,
2013-03-31 16:54:00,73.0,51.1,29.80,North,352,1.4,3.6,46,0.00,,,0.47,WSDL version 420,2013-03-31 05:54:00,
2013-03-31 16:59:00,72.7,50.9,29.80,NNW,338,0.6,2.9,47,0.00,,,0.47,WSDL version 420,2013-03-31 05:59:00,
2013-03-31 17:04:00,72.4,51.0,29.80,NW,308,1.5,2.9,47,0.00,,,0.47,WSDL version 420,2013-03-31 06:04:00,
2013-03-31 17:09:00,72.2,51.2,29.80,NE,42,1.5,2.7,48,0.00,,,0.47,WSDL version 420,2013-03-31 06:09:00,
2013-03-31 17:14:00,72.1,51.4,29.80,NNW,328,0.0,2.7,48,0.00,,,0.47,WSDL version 420,2013-03-31 06:14:00,
2013-03-31 17:19:00,72.0,51.8,29.80,NE,51,0.0,2.7,49,0.00,,,0.47,WSDL version 420,2013-03-31 06:19:00,
2013-03-31 17:24:00,72.0,52.1,29.83,WSW,238,0.0,2.5,50,0.00,,,0.47,WSDL version 420,2013-03-31 06:24:00,
2013-03-31 17:29:00,71.7,52.2,29.83,ENE,76,0.5,2.0,51,0.00,,,0.47,WSDL version 420,2013-03-31 06:29:00,
2013-03-31 17:39:00,71.6,52.5,29.83,North,350,0.0,2.9,51,0.00,,,0.47,WSDL version 420,2013-03-31 06:39:00,
2013-03-31 17:44:00,71.6,53.2,29.83,WNW,284,0.0,2.9,52,0.00,,,0.47,WSDL version 420,2013-03-31 06:44:00,
2013-03-31 17:49:00,71.7,53.7,29.83,North,8,1.2,2.7,53,-99.99,,,-99.99,WSDL version 420,2013-03-31 06:49:00,
2013-03-31 17:54:00,71.7,53.6,29.83,North,360,1.3,2.7,53,0.00,,,0.47,WSDL version 420,2013-03-31 06:54:00,
2013-03-31 18:04:00,71.8,53.2,29.83,WNW,295,1.2,2.5,52,0.00,,,0.47,WSDL version 420,2013-03-31 07:04:00,
2013-03-31 18:09:00,71.8,53.8,29.83,ENE,77,0.0,2.5,53,0.00,,,0.47,WSDL version 420,2013-03-31 07:09:00,
2013-03-31 18:14:00,71.7,53.7,29.83,West,270,0.7,2.5,53,0.00,,,0.47,WSDL version 420,2013-03-31 07:14:00,
2013-03-31 18:19:00,71.6,53.7,29.83,NW,315,1.6,3.1,53,-99.99,,,-99.99,WSDL version 420,2013-03-31 07:19:00,
2013-03-31 18:24:00,71.4,53.9,29.83,WSW,242,1.7,3.8,54,0.00,,,0.47,WSDL version 420,2013-03-31 07:24:00,
2013-03-31 18:29:00,71.3,54.2,29.83,NNW,331,1.6,3.8,55,0.00,,,0.47,WSDL version 420,2013-03-31 07:29:00,
2013-03-31 18:34:00,71.2,54.5,29.83,West,281,0.8,3.6,56,0.00,,,0.47,WSDL version 420,2013-03-31 07:34:00,
2013-03-31 18:39:00,70.9,54.8,29.85,East,86,0.0,2.7,57,0.00,,,0.47,WSDL version 420,2013-03-31 07:39:00,
2013-03-31 18:44:00,70.7,54.8,29.85,SE,135,0.0,2.0,58,0.00,,,0.47,WSDL version 420,2013-03-31 07:44:00,
2013-03-31 18:49:00,70.5,54.9,29.85,SE,131,0.3,2.0,58,0.00,,,0.47,WSDL version 420,2013-03-31 07:49:00,
2013-03-31 18:54:00,70.2,55.2,29.85,NE,49,0.0,2.0,59,0.00,,,0.47,WSDL version 420,2013-03-31 07:54:00,
2013-03-31 18:59:00,69.9,55.3,29.85,SSE,163,0.7,2.5,60,0.00,,,0.47,WSDL version 420,2013-03-31 07:59:00,
2013-03-31 19:04:00,69.7,55.6,29.85,NW,326,0.0,2.5,61,0.00,,,0.47,WSDL version 420,2013-03-31 08:04:00,
2013-03-31 19:09:00,69.4,55.8,29.85,SE,135,0.9,2.0,62,0.00,,,0.47,WSDL version 420,2013-03-31 08:09:00,
2013-03-31 19:19:00,68.8,55.9,29.85,North,349,0.0,1.6,64,0.00,,,0.47,WSDL version 420,2013-03-31 08:19:00,
2013-03-31 19:29:00,-999.0,-99.9,29.85,NW,315,0.0,1.1,-999,0.00,,,0.47,WSDL version 420,2013-03-31 08:29:00,
2013-03-31 19:34:00,68.2,56.1,29.85,NNE,17,0.0,0.0,66,0.00,,,0.47,WSDL version 420,2013-03-31 08:34:00,
2013-03-31 19:39:00,68.0,56.2,29.85,NNE,13,0.0,2.0,66,0.00,,,0.47,WSDL version 420,2013-03-31 08:39:00,
2013-03-31 19:44:00,67.6,55.9,29.85,SE,124,0.0,2.0,67,0.00,,,0.47,WSDL version 420,2013-03-31 08:44:00,
2013-03-31 19:49:00,67.1,56.0,29.85,SW,236,0.3,1.6,68,-99.99,,,-99.99,WSDL version 420,2013-03-31 08:49:00,
2013-03-31 19:54:00,66.9,56.1,29.85,SE,135,0.0,1.6,69,0.00,,,0.47,WSDL version 420,2013-03-31 08:54:00,
2013-03-31 19:59:00,66.5,55.9,29.85,NW,323,0.4,2.9,69,0.00,,,0.47,WSDL version 420,2013-03-31 08:59:00,
2013-03-31 20:09:00,67.0,57.7,29.88,WNW,286,0.9,2.5,72,0.00,,,0.47,WSDL version 420,2013-03-31 09:09:00,
2013-03-31 20:14:00,67.1,57.8,29.88,West,278,1.5,2.5,72,-99.99,,,-99.99,WSDL version 420,2013-03-31 09:14:00,
2013-03-31 20:19:00,67.3,58.1,29.88,West,281,1.8,3.4,73,0.00,,,0.47,WSDL version 420,2013-03-31 09:19:00,
2013-03-31 20:24:00,67.3,58.0,29.88,West,262,0.1,3.4,72,0.00,,,0.47,WSDL version 420,2013-03-31 09:24:00,
2013-03-31 20:34:00,66.9,57.6,29.88,NW,308,0.7,2.9,72,0.00,,,0.47,WSDL version 420,2013-03-31 09:34:00,
2013-03-31 20:39:00,66.7,57.4,29.91,NNW,341,1.1,2.2,72,0.00,,,0.47,WSDL version 420,2013-03-31 09:39:00,
2013-03-31 20:44:00,66.7,57.4,29.91,NW,319,1.3,2.9,72,-99.99,,,-99.99,WSDL version 420,2013-03-31 09:44:00,
2013-03-31 20:54:00,66.8,57.4,29.91,West,280,2.7,4.3,71,0.00,,,0.47,WSDL version 420,2013-03-31 09:54:00,
2013-03-31 21:04:00,67.1,57.1,29.91,WNW,293,2.2,4.0,71,0.00,,,0.47,WSDL version 420,2013-03-31 10:04:00,
2013-03-31 21:09:00,67.1,57.4,29.91,NNE,29,2.0,4.0,71,0.00,,,0.47,WSDL version 420,2013-03-31 10:09:00,
2013-03-31 21:19:00,67.2,57.9,29.91,NNW,344,2.1,4.0,72,0.00,,,0.47,WSDL version 420,2013-03-31 10:19:00,
2013-03-31 21:24:00,67.3,57.7,29.91,WSW,244,2.3,4.0,71,0.00,,,0.47,WSDL version 420,2013-03-31 10:24:00,
2013-03-31 21:29:00,67.1,57.1,29.91,NNW,338,1.6,5.8,70,0.00,,,0.47,WSDL version 420,2013-03-31 10:29:00,
2013-03-31 21:39:00,67.1,57.0,29.91,West,267,2.5,4.7,70,0.00,,,0.47,WSDL version 420,2013-03-31 10:39:00,
2013-03-31 21:44:00,67.1,57.0,29.91,North,357,1.3,4.9,70,0.00,,,0.47,WSDL version 420,2013-03-31 10:44:00,
2013-03-31 21:49:00,67.1,57.4,29.91,West,267,3.1,4.9,71,0.00,,,0.47,WSDL version 420,2013-03-31 10:49:00,
2013-03-31 21:59:00,67.1,57.4,29.88,SW,235,1.2,3.8,71,0.00,,,0.47,WSDL version 420,2013-03-31 10:59:00,
2013-03-31 22:04:00,67.0,57.3,29.88,WNW,296,1.7,3.1,71,0.00,,,0.47,WSDL version 420,2013-03-31 11:04:00,
2013-03-31 22:14:00,66.9,57.2,29.88,NNW,329,1.4,2.9,71,-99.99,,,-99.99,WSDL version 420,2013-03-31 11:14:00,
2013-03-31 22:24:00,66.7,57.6,29.91,NW,305,1.3,3.6,72,0.00,,,0.47,WSDL version 420,2013-03-31 11:24:00,
2013-03-31 22:29:00,66.7,57.8,29.91,West,259,0.8,3.1,73,0.00,,,0.47,WSDL version 420,2013-03-31 11:29:00,
2013-03-31 22:34:00,-999.0,-99.9,29.91,WSW,254,1.5,3.1,-999,0.00,,,0.47,WSDL version 420,2013-03-31 11:34:00,
2013-03-31 22:44:00,66.7,58.9,29.91,North,354,1.6,4.0,76,0.00,,,0.47,WSDL version 420,2013-03-31 11:44:00,
2013-03-31 22:54:00,66.7,59.5,29.94,NE,38,2.8,4.0,78,0.00,,,0.47,WSDL version 420,2013-03-31 11:54:00,
2013-03-31 22:59:00,66.3,59.3,29.94,SSW,212,1.9,5.4,78,0.00,,,0.47,WSDL version 420,2013-03-31 11:59:00,
2013-03-31 23:04:00,65.8,59.3,29.94,NW,315,1.2,5.4,80,0.00,,,0.47,WSDL version 420,2013-03-31 12:04:00,
2013-03-31 23:14:00,65.2,59.9,29.94,NNW,347,1.9,3.6,84,0.00,,,0.47,WSDL version 420,2013-03-31 12:14:00,
2013-03-31 23:19:00,64.9,60.4,29.94,West,281,0.4,3.6,86,0.00,,,0.47,WSDL version 420,2013-03-31 12:19:00,
2013-03-31 23:24:00,64.7,60.6,29.94,North,350,1.2,2.5,88,0.00,,,0.47,WSDL version 420,2013-03-31 12:24:00,
2013-03-31 23:34:00,64.4,61.4,29.94,NW,309,1.2,3.1,90,0.00,,,0.47,WSDL version 420,2013-03-31 12:34:00,
2013-03-31 23:39:00,64.2,61.8,29.94,ENE,68,2.1,3.8,93,0.00,,,0.47,WSDL version 420,2013-03-31 12:39:00,
2013-03-31 23:44:00,64.0,62.6,29.94,ENE,68,2.4,3.8,97,0.00,,,0.47,WSDL version 420,2013-03-31 12:44:00,
2013-03-31 23:49:00,63.9,63.0,29.94,NW,311,0.8,3.1,97,0.00,,,0.47,WSDL version 420,2013-03-31 12:49:00,
2013-03-31 23:54:00,63.6,62.6,29.94,WSW,254,1.0,3.1,96,0.00,,,0.47,WSDL version 420,2013-03-31 12:54:00,
2013-03-31 23:59:00,63.5,62.2,29.94,West,260,0.0,2.2,96,0.00,,,0.47,WSDL version 420,2013-03-31 12:59:00,